SES-14

Last updated on Sun Apr 12 2026 00:02:54 GMT+0000 (Coordinated Universal Time)

1 43175U 18012B 26101.43999499 -.00000277 00000+0 00000+0 0 9993 2 43175 0.0045 95.1051 0000886 297.2456 278.2171 1.00271978 6356
UTC large
Height (km)
Speed (km/s)
/
Latitude / Longitude
Inclination (degrees)
Orbital Period (minutes)
Azimuth
Elevation
Range (km)
Doppler Factor

Next 0 passes for location: London (51.5072 / 0.1276)

Sorry there are no passes over London.
SES-14